N6GIW Weather Reports


Display with metric or nautical units.
time (UTC)temp
F
wind
direction
speed
MPH
gust
MPH
rain 1hr
in
rain 24hr
in
rain mn
in
humidity
%
barometer
mb
20260904015504 80 210 8.0 12.0 0.00 0.00 0.00 27 1018.9
20260904015005 80 208 7.0 12.0 0.00 0.00 0.00 28 1018.9
20260904014504 81 218 7.0 13.0 0.00 0.00 0.00 27 1018.8
20260904014004 81 225 10.0 16.0 0.00 0.00 0.00 27 1018.9
20260904013504 81 216 9.0 16.0 0.00 0.00 0.00 27 1018.9
20260904012503 82 217 7.0 13.0 0.00 0.00 0.00 25 1018.8
20260904011505 83 214 10.0 16.0 0.00 0.00 0.00 24 1018.7
20260904011005 84 210 7.0 12.0 0.00 0.00 0.00 24 1018.8
20260904010504 84 220 9.0 15.0 0.00 0.00 0.00 23 1018.8
20260904010004 84 216 9.0 15.0 0.00 0.00 0.00 23 1018.7
20260904005504 84 207 10.0 15.0 0.00 0.00 0.00 23 1018.7
20260904005004 85 229 8.0 17.0 0.00 0.00 0.00 23 1018.7
20260904004504 85 230 7.0 13.0 0.00 0.00 0.00 22 1018.7
20260904004004 85 229 12.0 17.0 0.00 0.00 0.00 22 1018.7
20260904003505 85 222 9.0 16.0 0.00 0.00 0.00 22 1018.8
20260904003004 85 226 10.0 16.0 0.00 0.00 0.00 21 1018.8
20260904002004 85 208 14.0 20.0 0.00 0.00 0.00 21 1019.0
20260904001504 85 217 10.0 15.0 0.00 0.00 0.00 19 1018.9
20260904001004 86 220 10.0 17.0 0.00 0.00 0.00 19 1019.0
20260904000504 85 182 10.0 17.0 0.00 0.00 0.00 19 1018.9
20260904000004 86 199 9.0 16.0 0.00 0.00 0.00 19 1019.0
20260903235004 86 201 11.0 17.0 0.00 0.00 0.00 18 1019.2
20260903234505 86 179 13.0 22.0 0.00 0.00 0.00 18 1019.3
20260903234004 86 174 12.0 25.0 0.00 0.00 0.00 19 1019.3
20260903233504 86 178 13.0 23.0 0.00 0.00 0.00 18 1019.3
20260903233004 86 203 10.0 20.0 0.00 0.00 0.00 18 1019.3
20260903232504 86 177 12.0 20.0 0.00 0.00 0.00 18 1019.3
20260903231504 87 181 10.0 16.0 0.00 0.00 0.00 18 1019.4
20260903230504 87 157 12.0 21.0 0.00 0.00 0.00 18 1019.5
20260903230003 87 179 11.0 20.0 0.00 0.00 0.00 17 1019.5
20260903225503 87 162 13.0 24.0 0.00 0.00 0.00 17 1019.5
20260903225003 87 158 15.0 20.0 0.00 0.00 0.00 17 1019.6
20260903224503 87 173 12.0 20.0 0.00 0.00 0.00 17 1019.6
20260903224003 87 199 13.0 18.0 0.00 0.00 0.00 17 1019.6
20260903223503 87 185 12.0 20.0 0.00 0.00 0.00 17 1019.7
20260903222502 87 172 12.0 22.0 0.00 0.00 0.00 17 1019.8
20260903222003 87 174 11.0 18.0 0.00 0.00 0.00 17 1019.8
20260903221502 87 205 12.0 18.0 0.00 0.00 0.00 17 1019.9
20260903221002 87 188 16.0 21.0 0.00 0.00 0.00 17 1020.0
20260903220502 87 192 11.0 20.0 0.00 0.00 0.00 17 1020.0
20260903220003 87 185 12.0 20.0 0.00 0.00 0.00 17 1020.0
20260903215502 88 198 11.0 17.0 0.00 0.00 0.00 17 1020.0
20260903215002 87 167 13.0 17.0 0.00 0.00 0.00 17 1020.1
20260903214503 87 192 13.0 20.0 0.00 0.00 0.00 17 1020.1
20260903214003 87 179 14.0 21.0 0.00 0.00 0.00 15 1020.0
20260903213503 87 155 12.0 16.0 0.00 0.00 0.00 14 1020.1
20260903212003 87 178 14.0 20.0 0.00 0.00 0.00 15 1020.1
20260903211504 87 151 13.0 17.0 0.00 0.00 0.00 14 1020.2
20260903211004 86 149 13.0 21.0 0.00 0.00 0.00 14 1020.3
20260903210502 86 148 14.0 22.0 0.00 0.00 0.00 14 1020.2
20260903210002 86 157 14.0 23.0 0.00 0.00 0.00 14 1020.2
20260903205503 86 180 13.0 23.0 0.00 0.00 0.00 14 1020.3
20260903205003 87 160 14.0 20.0 0.00 0.00 0.00 14 1020.3
20260903204503 87 172 12.0 22.0 0.00 0.00 0.00 14 1020.3
20260903204003 87 158 12.0 25.0 0.00 0.00 0.00 14 1020.2
20260903203502 86 175 12.0 20.0 0.00 0.00 0.00 13 1020.2
20260903203002 86 196 13.0 17.0 0.00 0.00 0.00 13 1020.4
20260903202003 86 164 9.0 18.0 0.00 0.00 0.00 13 1020.6
20260903200502 86 188 10.0 16.0 0.00 0.00 0.00 14 1020.8
20260903200002 86 170 10.0 16.0 0.00 0.00 0.00 14 1020.9
20260903195004 85 208 9.0 18.0 0.00 0.00 0.00 14 1020.8
20260903194518 85 159 8.0 15.0 0.00 0.00 0.00 14 1020.9
20260903194023 85 171 9.0 14.0 0.00 0.00 0.00 14 1021.0
20260903193522 85 194 7.0 15.0 0.00 0.00 0.00 14 1021.0
20260903193004 85 187 7.0 13.0 0.00 0.00 0.00 14 1021.3
20260903192503 84 184 10.0 14.0 0.00 0.00 0.00 14 1021.3
20260903191502 84 193 6.0 15.0 0.00 0.00 0.00 15 1021.4
20260903191003 84 189 8.0 16.0 0.00 0.00 0.00 15 1021.4
20260903190003 83 196 9.0 15.0 0.00 0.00 0.00 15 1021.6
20260903185503 83 170 10.0 20.0 0.00 0.00 0.00 15 1021.5
20260903185002 83 152 9.0 18.0 0.00 0.00 0.00 15 1021.7
20260903184003 83 181 6.0 12.0 0.00 0.00 0.00 16 1021.9
20260903183503 83 182 5.0 12.0 0.00 0.00 0.00 16 1021.9
20260903183003 83 181 4.0 14.0 0.00 0.00 0.00 16 1022.0
20260903182503 83 212 2.0 7.0 0.00 0.00 0.00 15 1022.1
20260903182003 83 211 6.0 12.0 0.00 0.00 0.00 16 1022.1
20260903181503 82 161 3.0 10.0 0.00 0.00 0.00 16 1022.2
20260903180503 82 264 4.0 7.0 0.00 0.00 0.00 15 1022.2
20260903180003 82 233 1.0 3.0 0.00 0.00 0.00 15 1022.1
20260903175503 82 218 3.0 7.0 0.00 0.00 0.00 15 1022.1
20260903175004 82 195 5.0 9.0 0.00 0.00 0.00 15 1022.1
20260903174004 82 134 3.0 7.0 0.00 0.00 0.00 15 1022.1
20260903173003 81 147 2.0 8.0 0.00 0.00 0.00 16 1021.9
20260903172503 80 132 3.0 12.0 0.00 0.00 0.00 16 1021.9
20260903172003 80 89 0.0 3.0 0.00 0.00 0.00 16 1021.9
20260903171504 80 95 1.0 6.0 0.00 0.00 0.00 16 1021.9
20260903171003 80 105 1.0 6.0 0.00 0.00 0.00 16 1021.9
20260903165003 78 106 1.0 3.0 0.00 0.00 0.00 17 1022.1
20260903164003 78 143 3.0 8.0 0.00 0.00 0.00 17 1022.0
20260903163003 77 135 2.0 7.0 0.00 0.00 0.00 18 1021.9
20260903162503 77 125 4.0 8.0 0.00 0.00 0.00 18 1021.9
20260903162003 77 144 4.0 9.0 0.00 0.00 0.00 19 1021.9
20260903161503 76 121 3.0 5.0 0.00 0.00 0.00 19 1022.0
20260903161003 76 128 1.0 5.0 0.00 0.00 0.00 20 1022.2
20260903160503 76 91 2.0 3.0 0.00 0.00 0.00 20 1022.2
20260903155503 75 113 2.0 6.0 0.00 0.00 0.00 20 1022.2
20260903155004 75 107 1.0 3.0 0.00 0.00 0.00 21 1022.2
20260903154003 74 138 4.0 7.0 0.00 0.00 0.00 21 1022.2
20260903153503 73 160 2.0 3.0 0.00 0.00 0.00 21 1022.2
20260903153003 73 157 2.0 5.0 0.00 0.00 0.00 23 1022.2
20260903152503 72 164 1.0 3.0 0.00 0.00 0.00 23 1022.2
20260903152003 72 163 1.0 5.0 0.00 0.00 0.00 23 1022.1
20260903151504 71 174 2.0 5.0 0.00 0.00 0.00 24 1022.0
20260903151002 71 191 3.0 5.0 0.00 0.00 0.00 24 1022.1
20260903145004 68 173 3.0 6.0 0.00 0.00 0.00 27 1022.0
20260903144003 67 195 0.0 1.0 0.00 0.00 0.00 25 1021.9
20260903143503 67 195 0.0 3.0 0.00 0.00 0.00 24 1021.8
20260903143004 66 195 0.0 3.0 0.00 0.00 0.00 26 1021.8
20260903142503 65 194 1.0 3.0 0.00 0.00 0.00 27 1021.8
20260903142003 65 194 0.0 3.0 0.00 0.00 0.00 26 1021.6
20260903141503 64 196 2.0 3.0 0.00 0.00 0.00 25 1021.6
20260903141004 64 196 2.0 3.0 0.00 0.00 0.00 25 1021.6
20260903140503 63 199 2.0 3.0 0.00 0.00 0.00 24 1021.5
20260903135503 62 229 0.0 1.0 0.00 0.00 0.00 25 1021.4
20260903135005 61 229 0.0 1.0 0.00 0.00 0.00 25 1021.4
20260903134504 61 229 1.0 3.0 0.00 0.00 0.00 25 1021.3
20260903134003 60 229 2.0 3.0 0.00 0.00 0.00 26 1021.1
20260903133003 59 240 2.0 5.0 0.00 0.00 0.00 27 1021.0
20260903132004 59 237 2.0 3.0 0.00 0.00 0.00 26 1021.2
20260903131503 59 258 4.0 8.0 0.00 0.00 0.00 26 1021.0
20260903131004 58 253 6.0 9.0 0.00 0.00 0.00 27 1021.0
20260903130503 57 257 3.0 5.0 0.00 0.00 0.00 28 1021.0
20260903130003 57 209 0.0 2.0 0.00 0.00 0.00 29 1021.0
20260903125503 58 202 0.0 1.0 0.00 0.00 0.00 29 1021.0
20260903125004 58 202 0.0 0.0 0.00 0.00 0.00 30 1021.0
20260903124503 58 202 0.0 0.0 0.00 0.00 0.00 30 1020.9
20260903124004 59 202 0.0 2.0 0.00 0.00 0.00 28 1020.9
20260903123503 60 202 0.0 1.0 0.00 0.00 0.00 28 1020.9
20260903122502 59 201 3.0 5.0 0.00 0.00 0.00 29 1020.9
20260903121503 57 232 0.0 2.0 0.00 0.00 0.00 30 1021.0
20260903121004 57 232 0.0 0.0 0.00 0.00 0.00 30 1021.0
20260903120503 57 232 0.0 0.0 0.00 0.00 0.00 30 1020.9
20260903115503 57 232 0.0 1.0 0.00 0.00 0.00 30 1020.9
20260903115003 57 234 0.0 0.0 0.00 0.00 0.00 31 1021.0
20260903114004 56 232 0.0 0.0 0.00 0.00 0.00 30 1021.1
20260903113503 56 232 0.0 0.0 0.00 0.00 0.00 30 1021.0
20260903112504 57 232 0.0 0.0 0.00 0.00 0.00 30 1021.0
20260903112003 57 232 0.0 0.0 0.00 0.00 0.00 30 1021.0
20260903111503 57 232 0.0 0.0 0.00 0.00 0.00 30 1021.0
20260903111004 57 232 0.0 1.0 0.00 0.00 0.00 31 1021.0
20260903110503 56 232 0.0 0.0 0.00 0.00 0.00 31 1020.9
20260903110003 57 232 0.0 0.0 0.00 0.00 0.00 31 1020.9
20260903105003 58 232 0.0 0.0 0.00 0.00 0.00 31 1020.9
20260903104503 59 232 0.0 1.0 0.00 0.00 0.00 32 1020.9
20260903103503 57 232 0.0 0.0 0.00 0.00 0.00 34 1020.9
20260903103003 57 232 0.0 1.0 0.00 0.00 0.00 34 1021.1
20260903102503 57 232 0.0 1.0 0.00 0.00 0.00 34 1021.1
20260903102003 57 232 0.0 2.0 0.00 0.00 0.00 32 1021.1
20260903101004 59 232 0.0 0.0 0.00 0.00 0.00 31 1021.2
20260903100503 60 232 0.0 0.0 0.00 0.00 0.00 30 1021.2
20260903095503 59 234 0.0 0.0 0.00 0.00 0.00 32 1021.3
20260903095003 59 234 0.0 0.0 0.00 0.00 0.00 33 1021.3
20260903094502 59 234 0.0 0.0 0.00 0.00 0.00 33 1021.3
20260903094003 60 234 0.0 0.0 0.00 0.00 0.00 33 1021.2
20260903093503 60 234 0.0 0.0 0.00 0.00 0.00 32 1021.3
20260903093004 61 234 0.0 2.0 0.00 0.00 0.00 32 1021.3
20260903092503 61 234 0.0 1.0 0.00 0.00 0.00 32 1021.2
20260903092003 62 234 0.0 0.0 0.00 0.00 0.00 31 1021.3
20260903091504 62 234 0.0 2.0 0.00 0.00 0.00 32 1021.3
20260903091003 62 234 0.0 2.0 0.00 0.00 0.00 31 1021.4
20260903090003 63 233 1.0 3.0 0.00 0.00 0.00 28 1021.5
20260903085503 63 232 0.0 1.0 0.00 0.00 0.00 29 1021.5
20260903084503 61 240 0.0 0.0 0.00 0.00 0.00 31 1021.6
20260903084012 61 242 0.0 3.0 0.00 0.00 0.00 31 1021.5
20260903082004 61 238 0.0 2.0 0.00 0.00 0.00 29 1021.7
20260903081003 62 243 2.0 3.0 0.00 0.00 0.00 30 1021.7
20260903080504 63 249 1.0 2.0 0.00 0.00 0.00 31 1021.7
20260903075503 63 236 2.0 3.0 0.00 0.00 0.00 32 1021.8
20260903074503 63 213 1.0 5.0 0.00 0.00 0.00 30 1021.7
20260903074004 64 203 4.0 6.0 0.00 0.00 0.00 29 1021.7
20260903073503 63 207 5.0 6.0 0.00 0.00 0.00 30 1021.8
20260903073003 63 211 1.0 3.0 0.00 0.00 0.00 33 1021.8
20260903072503 62 217 1.0 3.0 0.00 0.00 0.00 34 1021.7
20260903072003 62 223 0.0 1.0 0.00 0.00 0.00 33 1021.7
20260903071503 62 223 0.0 2.0 0.00 0.00 0.00 33 1021.8
20260903071004 62 223 0.0 1.0 0.00 0.00 0.00 34 1021.8
20260903070503 62 223 0.0 1.0 0.00 0.00 0.00 33 1021.8
20260903070003 62 223 0.0 3.0 0.00 0.00 0.00 33 1021.9
20260903065503 63 223 1.0 3.0 0.00 0.00 0.00 33 1021.9
20260903065003 63 241 0.0 1.0 0.00 0.00 0.00 34 1021.9
20260903064503 63 241 0.0 1.0 0.00 0.00 0.00 34 1021.9
20260903063503 63 295 0.0 0.0 0.00 0.00 0.00 33 1022.0
20260903063003 64 295 0.0 0.0 0.00 0.00 0.00 34 1022.1
20260903062503 64 295 0.0 0.0 0.00 0.00 0.00 34 1022.1
20260903062005 64 295 0.0 2.0 0.00 0.00 0.00 35 1022.1
20260903061004 64 201 0.0 2.0 0.00 0.00 0.00 35 1022.1
20260903060503 64 200 0.0 1.0 0.00 0.00 0.00 35 1022.2
20260903060003 64 194 0.0 1.0 0.00 0.00 0.00 35 1022.3
20260903055503 63 192 0.0 0.0 0.00 0.00 0.00 34 1022.3
20260903055003 64 192 0.0 0.0 0.00 0.00 0.00 33 1022.3
20260903053503 64 192 0.0 0.0 0.00 0.00 0.00 33 1022.5
20260903052529 65 192 1.0 2.0 0.00 0.00 0.00 33 1022.4
20260903052004 65 192 0.0 0.0 0.00 0.00 0.00 33 1022.4
20260903051505 65 192 0.0 0.0 0.00 0.00 0.00 33 1022.4
20260903051003 65 192 0.0 0.0 0.00 0.00 0.00 33 1022.4
20260903050503 66 192 0.0 0.0 0.00 0.00 0.00 33 1022.4
20260903050003 66 192 0.0 0.0 0.00 0.00 0.00 33 1022.4
20260903045504 66 192 0.0 0.0 0.00 0.00 0.00 32 1022.4
20260903045003 67 192 0.0 0.0 0.00 0.00 0.00 32 1022.4
20260903044004 68 192 1.0 3.0 0.00 0.00 0.00 32 1022.4
20260903043503 68 190 1.0 3.0 0.00 0.00 0.00 32 1022.3
20260903043003 68 186 2.0 3.0 0.00 0.00 0.00 31 1022.3
20260903042503 68 186 2.0 3.0 0.00 0.00 0.00 31 1022.2
20260903041003 69 174 0.0 2.0 0.00 0.00 0.00 31 1022.2
20260903040504 69 175 2.0 3.0 0.00 0.00 0.00 30 1022.0
20260903040003 70 179 2.0 3.0 0.00 0.00 0.00 30 1022.0
20260903035503 70 180 3.0 3.0 0.00 0.00 0.00 30 1021.9
20260903035003 70 198 0.0 2.0 0.00 0.00 0.00 29 1021.9
20260903034503 71 198 0.0 3.0 0.00 0.00 0.00 29 1021.9
20260903034003 71 199 2.0 3.0 0.00 0.00 0.00 29 1021.9
20260903033503 72 202 0.0 0.0 0.00 0.00 0.00 29 1021.9
20260903032504 73 204 1.0 3.0 0.00 0.00 0.00 28 1021.7
20260903032003 74 204 4.0 7.0 0.00 0.00 0.00 28 1021.7
20260903031504 74 187 7.0 9.0 0.00 0.00 0.00 28 1021.5
20260903031003 74 189 5.0 7.0 0.00 0.00 0.00 28 1021.4
20260903030503 74 194 5.0 8.0 0.00 0.00 0.00 28 1021.3
20260903030003 74 202 5.0 6.0 0.00 0.00 0.00 27 1021.5
20260903025503 75 203 5.0 7.0 0.00 0.00 0.00 27 1021.5
20260903025010 75 205 6.0 7.0 0.00 0.00 0.00 27 1021.6
20260903024003 76 198 5.0 7.0 0.00 0.00 0.00 27 1021.4
20260903022504 77 186 5.0 6.0 0.00 0.00 0.00 26 1021.4
20260903022011 77 208 3.0 5.0 0.00 0.00 0.00 25 1021.5
20260903021503 78 217 1.0 3.0 0.00 0.00 0.00 24 1021.4
20260903021003 79 209 3.0 5.0 0.00 0.00 0.00 24 1021.5
20260903020503 79 190 4.0 9.0 0.00 0.00 0.00 24 1021.5
20260903020008 80 207 4.0 9.0 0.00 0.00 0.00 23 1021.5